Alexis Renard

Cofidis, Frankrike, 25 år

Pro Cycling Manager

Informasjon

Alexis Renard er en 25 år gammel profesjonell syklist fra Frankrike (født 1.juni 1999), som sykler for Cofidis (UCI WorldTeam). Han er nummer 447 på UCI rankingen.

2024 2023 2022 2021 2020 2019 2018 2017 2016

Cofidis (WorldTour) UCI Ranking: 447 (198pts)
Alle Flatt Kupert Fjell Tempo Brosten
Dato Pos GC Ritt UCI
21.07 Tour de France | 2.UWT 2024-07-21 Vis mer
21.07 DNF Tour de France | Sammenlagt 2024-07-21
20.03 40 Classic Brugge-De Panne | 1.UWT 2024-03-205Vis mer
17.03 2 Cholet Agglo Tour | 1.1 2024-03-1785Vis mer
16.03 83 Classic Loire Atlantique | 1.1 2024-03-16Vis mer
25.02 DNF Kuurne-Brussel-Kuurne | 1.Pro 2024-02-25Vis mer
24.02 DNF Omloop Het Nieuwsblad | 1.UWT 2024-02-24Vis mer
28.01 121 Trofeo Palma | 1.1 2024-01-28Vis mer
26.01 120 Trofeo Serra Tramuntana | 1.1 2024-01-26Vis mer
25.01 11 Trofeo Ses Salines - Felanitx | 1.1 2024-01-2515Vis mer
20.01 89 Clàssica Comunitat Valenciana 1969 - GP Valencia | 1.1 2024-01-20Vis mer
22.03 53 E3 Saxo Classic | 1.UWT 2024-03-224Vis mer
24.03 28 Gent - Wevelgem | 1.UWT 2024-03-2420Vis mer
16.06 Tour de Suisse | 2.UWT 2024-06-16 Vis mer
16.06 134 Tour de Suisse | Sammenlagt 2024-06-16
23.06 42 France RR | CN 2024-06-23Vis mer
26.05 Boucles de la Mayenne | 2.Pro 2024-05-26 Vis mer
26.05 95 Boucles de la Mayenne | Sammenlagt 2024-05-26
19.05 4 Jours de Dunkerque | 2.Pro 2024-05-19 Vis mer
19.05 29 4 Jours de Dunkerque | Sammenlagt 2024-05-195
09.05 76 Circuit de Wallonie | 1.1 2024-05-09Vis mer
05.05 23 Tro-Bro Leon | 1.Pro 2024-05-055Vis mer
04.05 107 GP de Plumelec-Morbihan | 1.Pro 2024-05-04Vis mer
14.04 DNF Amstel Gold Race | 1.UWT 2024-04-14Vis mer
07.04 OOT Paris-Roubaix | 1.UWT 2024-04-07Vis mer
03.04 33 Scheldeprijs | 1.Pro 2024-04-033Vis mer
31.03 DNF Ronde van Vlaanderen | 1.UWT 2024-03-31Vis mer
27.03 103 Dwars door Vlaanderen | 1.UWT 2024-03-27Vis mer
19.05 15 4 Jours de Dunkerque | Ungdom 2024-05-19
16.06 58 Tour de Suisse | Ungdom 2024-06-16
19.05 39 4 Jours de Dunkerque | Poeng 2024-05-19
10.07 DNF Tour de France | 11.etappe 2024-07-10
09.07 132156 Tour de France | 10.etappe 2024-07-09
07.07 152157 Tour de France | 9.etappe 2024-07-07
06.07 119154 Tour de France | 8.etappe 2024-07-06
05.07 169156 Tour de France | 7.etappe 2024-07-05
04.07 92155 Tour de France | 6.etappe 2024-07-04
03.07 21155 Tour de France | 5.etappe 2024-07-03
02.07 147157 Tour de France | 4.etappe 2024-07-02
01.07 173156 Tour de France | 3.etappe 2024-07-01
30.06 153159 Tour de France | 2.etappe 2024-06-30
29.06 154154 Tour de France | 1.etappe 2024-06-29
16.06 122134 Tour de Suisse | 8.etappe 2024-06-16
15.06 134137 Tour de Suisse | 7.etappe 2024-06-15
14.06 136140 Tour de Suisse | 6.etappe 2024-06-14
13.06 138143 Tour de Suisse | 5.etappe 2024-06-13
12.06 150144 Tour de Suisse | 4.etappe 2024-06-12
11.06 113136 Tour de Suisse | 3.etappe 2024-06-11
10.06 154155 Tour de Suisse | 2.etappe 2024-06-10
09.06 8182 Tour de Suisse | 1.etappe 2024-06-09
26.05 9295 Boucles de la Mayenne | 3.etappe 2024-05-26
25.05 9584 Boucles de la Mayenne | 2.etappe 2024-05-25
24.05 4923 Boucles de la Mayenne | 1.etappe 2024-05-24
23.05 2222 Boucles de la Mayenne | Prolog 2024-05-23
19.05 2029 4 Jours de Dunkerque | 6.etappe 2024-05-19
18.05 3630 4 Jours de Dunkerque | 5.etappe 2024-05-18
17.05 914 4 Jours de Dunkerque | 4.etappe 2024-05-17
16.05 1624 4 Jours de Dunkerque | 3.etappe 2024-05-16
15.05 5033 4 Jours de Dunkerque | 2.etappe 2024-05-15
14.05 1919 4 Jours de Dunkerque | 1.etappe 2024-05-14